SCP
3 3 2 2 2 1 1 1 1 1 0 0 0 0 0 0 0 0 0 1 1 2 2 2 2 2 2 2 1 1 1 1 2 2 2 1 2 2 1 1 1 1 2
4 3 3 2 2 2 1 1 1 0 0 0 0 0 0 0 0 0 0 1 1 2 2 2 2 2 2 2 2 1 1 1 1 2 1 1 1 1 1 1 1 2 2
5 5 4 3 2 2 2 1 1 0 0 0 0 0 0 0 0 0 1 1 1 2 2 2 2 2 2 2 1 1 1 1 1 1 1 1 1 1 1 1 1 2 2
7 6 5 4 3 3 2 1 1 0 0 0 0 0 0 0 0 1 1 1 1 1 2 2 2 2 2 2 2 1 1 1 1 1 1 1 1 1 1 1 2 2 3
7 7 6 4 4 3 3 2 1 1 1 1 0 0 0 0 0 1 1 1 1 1 1 2 2 2 2 2 2 2 2 1 1 1 1 1 1 1 1 1 2 3 4
7 7 6 5 4 4 3 2 1 1 1 1 0 0 1 1 1 1 1 1 1 1 1 1 1 2 2 2 3 3 2 2 2 2 1 1 1 1 1 1 3 4 4
6 6 6 5 5 4 4 3 2 1 1 1 1 1 1 1 1 2 2 2 2 1 1 1 1 1 2 2 3 3 3 3 3 2 2 1 1 1 1 1 2 3 3
5 5 5 4 4 4 3 3 2 1 1 1 1 1 2 2 2 2 2 3 3 2 1 1 1 1 1 2 2 4 4 4 4 3 2 2 2 1 1 1 2 2 2
4 4 4 4 3 3 3 2 2 2 1 1 1 1 1 2 2 2 2 3 3 2 2 1 1 1 1 1 2 3 4 5 4 4 3 3 2 2 2 2 2 2 2
5 5 4 4 3 3 3 3 3 2 2 1 1 1 1 1 2 2 2 2 3 3 2 2 1 1 1 2 2 3 3 4 5 4 4 3 3 2 2 2 2 2 2
6 6 5 4 4 4 4 4 3 3 2 2 2 2 2 2 2 2 2 2 2 2 2 2 2 1 1 1 2 2 3 3 4 4 3 3 3 3 3 3 3 3 3
5 5 5 4 4 4 4 4 3 2 2 2 2 2 2 2 2 2 1 1 1 1 1 1 1 1 1 1 2 2 2 2 3 3 2 3 3 3 4 3 3 3 3
3 3 3 4 4 3 3 3 2 2 2 2 2 2 3 2 2 2 1 1 1 1 1 1 1 1 1 1 2 2 2 1 1 1 2 2 3 3 3 4 4 4 4
2 2 3 3 3 2 2 2 2 2 2 2 2 3 3 2 2 1 1 1 1 0 0 0 1 1 1 1 2 2 1 1 1 1 1 1 2 2 3 3 3 3 3
3 3 3 3 3 3 3 3 2 2 2 3 3 3 3 2 2 1 1 1 1 1 0 0 0 1 1 1 1 1 1 1 1 1 1 1 1 1 2 2 2 3 2
3 3 3 4 4 3 3 3 3 3 3 3 3 4 3 2 1 1 1 1 1 1 0 0 0 1 1 1 1 1 1 1 1 2 1 1 1 1 1 2 2 2 2
4 4 4 4 4 4 4 4 3 3 3 3 3 3 3 2 1 1 1 1 1 1 1 1 1 1 1 1 1 1 1 1 2 2 1 1 1 1 1 1 1 1 1
4 5 5 5 5 5 4 4 4 3 3 3 3 3 2 1 1 1 1 1 1 1 1 1 1 1 1 1 1 1 1 1 1 1 1 1 1 1 1 1 1 1 1
5 5 6 6 5 5 5 5 4 4 3 2 2 2 2 1 1 1 1 1 1 1 2 1 1 1 1 1 1 1 1 1 1 1 1 1 1 1 1 0 0 0 0
6 6 6 6 6 5 5 5 5 4 2 2 1 1 1 1 1 1 1 1 2 2 2 2 1 1 1 1 1 1 1 1 1 1 2 2 2 1 1 0 0 0 0
6 6 6 6 5 4 4 4 4 3 2 1 1 1 1 1 1 1 1 1 1 2 2 2 2 2 2 2 2 1 1 1 1 2 2 3 3 2 1 0 0 0 0
5 5 5 4 4 3 3 3 2 2 1 1 1 1 1 1 1 1 1 1 1 1 2 2 2 2 2 2 2 2 2 2 2 2 2 3 3 2 1 1 1 0 0
4 3 3 2 2 2 2 2 1 1 0 0 0 1 1 1 1 1 1 0 1 1 1 2 2 2 2 2 2 3 3 3 2 2 2 2 3 2 2 1 1 0 0
2 2 2 1 2 2 2 1 1 1 1 0 0 0 0 0 0 0 0 0 0 0 1 1 1 2 2 2 2 2 2 2 2 2 2 2 2 2 2 2 1 1 0
1 1 1 1 2 2 1 1 1 1 1 1 1 0 0 0 0 0 0 0 0 0 1 1 1 1 1 1 1 1 1 1 1 1 1 1 2 2 2 2 1 1 1
1 1 1 1 2 2 2 1 1 1 1 1 1 1 1 0 0 0 0 0 0 0 1 1 1 0 0 0 0 0 1 1 1 1 1 1 1 2 2 2 2 1 1
Wind_Speed
2 1 1 1 1 1 1 1 1 1 1 0 1 2 2 3 3 3 3 8 9 9 9 9 9 9 9 10 10 10 9 9 9 9 9 9 9 10 11 11 11 11 11
2 1 1 1 0 0 1 1 1 1 1 1 0 1 2 2 3 3 3 5 9 9 8 8 8 9 9 9 9 9 9 9 9 9 8 8 9 10 11 12 11 11 11
2 2 2 1 0 0 1 1 2 2 1 1 0 1 1 1 2 3 3 3 4 7 8 9 8 8 8 8 9 9 9 8 8 8 8 8 9 10 11 11 11 11 11
2 2 2 1 0 1 1 2 2 2 1 1 0 1 0 0 2 2 3 3 3 3 6 9 9 8 9 9 9 9 9 9 8 8 9 9 9 9 11 11 11 11 11
2 2 1 1 1 1 1 1 1 1 1 0 0 1 1 1 1 2 2 2 3 3 3 6 9 9 9 9 9 10 10 10 10 9 9 9 8 8 10 11 11 11 11
2 2 1 1 2 2 1 1 1 1 1 0 0 1 1 1 0 1 2 1 1 2 3 3 3 4 8 8 8 9 10 10 10 9 9 9 8 8 8 9 9 10 11
1 2 1 1 1 2 1 1 1 1 1 1 1 2 2 2 0 1 1 1 1 2 2 2 1 1 2 5 5 6 8 8 9 9 9 8 8 8 8 8 8 9 10
1 2 2 1 1 1 1 1 1 1 1 1 1 1 2 3 3 1 0 1 1 1 1 3 2 2 1 1 2 4 5 6 7 8 8 8 8 8 8 8 8 8 8
1 1 2 1 1 1 1 0 1 1 0 1 1 2 2 1 2 2 1 0 0 1 1 1 2 2 2 1 2 3 5 5 6 6 6 6 6 7 8 8 8 8 8
1 1 1 1 1 1 1 0 1 1 2 0 1 0 1 2 1 1 3 2 1 0 1 1 2 2 2 2 2 3 5 5 6 5 5 6 6 6 7 8 9 9 9
1 1 1 1 1 1 1 1 1 1 1 1 0 1 1 1 1 2 1 2 2 1 1 1 1 1 2 2 2 3 5 4 5 5 5 5 6 6 7 7 8 9 9
1 1 1 1 1 1 0 0 1 1 1 1 1 1 1 0 0 1 1 1 1 2 1 1 1 1 1 2 3 4 5 4 4 5 5 5 6 6 6 7 7 8 8
1 1 1 0 0 0 1 1 1 1 1 1 0 0 0 0 1 1 1 1 0 2 2 1 1 1 1 1 2 4 4 4 5 5 5 5 5 5 6 6 6 7 7
1 1 0 0 0 1 1 1 1 1 1 1 1 1 0 0 0 1 2 2 1 2 2 2 1 1 1 1 2 3 2 3 4 5 5 6 6 6 5 5 5 5 6
0 1 0 1 0 1 1 1 1 1 1 1 1 1 1 1 1 0 1 2 3 1 2 2 1 1 1 1 2 2 2 3 4 4 5 5 6 6 6 5 5 5 5
1 1 1 1 1 1 1 1 1 1 1 1 1 1 1 1 1 1 1 1 1 3 2 2 2 2 2 1 1 1 2 2 3 4 4 5 5 6 6 6 6 6 5
0 0 0 1 1 1 1 1 1 1 1 1 1 1 1 1 1 1 1 1 1 1 1 2 2 1 1 1 1 1 1 1 1 3 4 5 5 5 5 5 5 6 6
1 1 1 1 1 1 0 1 0 0 0 0 1 1 1 1 1 1 1 1 0 0 2 2 2 1 2 2 1 1 1 1 1 3 4 5 5 5 5 5 5 5 6
1 1 1 1 0 0 0 0 1 1 1 1 1 0 1 0 1 1 0 0 0 0 0 1 2 2 2 1 1 1 2 1 2 2 3 4 5 5 5 5 5 5 6
1 1 1 1 1 0 0 0 0 1 0 1 1 1 1 1 1 1 0 1 1 0 0 0 1 2 2 2 0 1 2 2 2 2 2 2 3 4 5 5 6 6 6
1 1 1 0 1 0 0 0 0 0 0 1 1 1 1 1 0 0 1 1 1 0 1 1 1 2 2 1 1 1 2 2 2 2 1 2 2 2 3 5 6 6 6
2 2 2 1 2 1 3 2 1 0 0 0 1 2 2 1 2 2 2 1 1 1 2 1 2 2 3 3 2 1 1 1 3 2 1 3 1 2 3 3 4 4 5
2 2 2 2 1 2 4 3 2 1 0 1 1 1 2 2 1 1 2 3 2 2 2 3 3 4 4 3 2 2 2 2 3 3 1 3 2 3 3 3 4 5 5
1 1 1 1 1 3 4 4 3 2 1 1 1 1 0 1 2 1 1 2 3 3 3 2 4 5 5 4 4 3 3 2 3 2 2 2 2 2 2 2 4 5 5
1 1 1 1 2 3 5 5 3 2 1 2 2 1 1 1 3 3 1 2 3 4 4 4 4 4 5 5 3 1 1 0 2 3 1 2 2 1 2 2 2 2 3
1 1 2 2 2 2 5 6 4 1 2 2 3 3 3 3 4 3 1 1 3 4 4 4 4 5 4 4 3 2 3 2 2 2 2 1 2 0 1 2 1 1 1
Wind_Direction
107 110 116 94 61 62 89 78 77 81 68 111 161 148 155 168 172 179 180 185 189 193 196 199 203 204 200 197 200 204 205 205 203 205 206 204 201 199 199 201 203 202 200
116 113 96 81 79 169 138 125 112 107 96 101 145 149 174 178 179 175 176 183 193 194 195 198 204 205 204 204 205 205 204 203 204 205 205 204 205 205 206 207 206 203 203
111 111 106 92 102 140 122 98 81 85 105 110 45 239 213 199 189 191 189 191 196 204 205 204 206 205 207 207 207 207 206 203 202 202 205 205 207 208 208 207 207 206 207
116 118 107 107 159 94 101 104 99 90 92 110 265 281 281 224 208 201 194 193 195 205 210 209 209 209 210 211 214 211 207 204 205 208 209 211 212 211 208 204 206 208 209
115 113 97 87 99 92 76 86 90 119 121 88 218 240 263 244 225 210 201 202 202 207 209 213 214 214 212 213 215 212 211 210 211 212 210 212 213 210 207 206 209 211 212
121 114 94 50 61 71 45 51 74 73 149 183 252 353 301 282 142 193 204 188 187 198 200 198 204 218 215 214 220 221 217 211 209 207 208 210 214 214 210 209 210 214 215
106 111 108 78 74 87 92 78 71 49 17 42 55 9 359 7 47 226 193 163 182 201 184 176 164 168 210 215 221 218 210 204 204 202 205 210 214 214 214 213 214 217 219
100 115 118 115 103 88 61 49 70 47 358 44 100 74 1 351 350 359 26 165 191 186 187 188 171 173 207 224 218 206 192 190 197 204 208 212 216 216 215 216 217 221 223
140 106 122 125 114 106 106 55 91 100 29 353 83 131 138 238 308 331 324 335 139 147 204 194 187 192 200 224 223 206 193 191 195 201 198 201 207 213 216 218 222 226 228
70 92 105 114 103 88 89 34 98 116 120 19 341 36 163 167 161 307 328 339 320 206 231 224 212 199 204 213 210 189 189 197 201 202 198 201 204 206 214 220 225 227 228
41 61 76 100 103 90 93 64 66 81 101 117 119 318 18 37 116 153 282 324 345 326 262 239 221 206 208 211 214 203 192 198 195 200 206 209 209 211 216 221 227 230 230
11 13 61 85 109 92 79 123 99 80 79 88 97 89 114 141 215 159 191 263 298 303 307 301 251 223 209 207 212 199 194 198 203 208 214 219 219 220 223 228 233 236 237
1 325 5 59 92 114 98 90 85 62 63 79 69 94 128 173 177 163 156 188 305 308 322 321 293 278 230 209 215 189 194 198 208 215 219 225 229 229 233 237 240 243 243
237 285 310 59 116 103 86 86 71 55 70 69 30 31 35 339 125 152 167 153 87 339 337 301 306 293 286 221 219 185 193 195 207 218 224 228 229 227 230 239 243 248 248
273 325 343 69 77 78 79 90 70 32 61 54 13 29 29 357 38 64 138 153 155 175 288 286 292 283 270 236 216 189 196 216 222 227 227 234 232 229 229 232 236 241 245
358 28 33 57 64 64 68 70 39 9 47 16 25 41 21 21 29 38 56 73 131 162 217 271 263 262 265 266 223 207 211 221 239 245 241 239 236 234 233 234 234 238 243
60 57 90 111 91 68 53 66 42 39 47 16 8 37 15 40 43 25 35 45 54 131 191 284 279 285 291 299 279 235 225 215 239 252 253 243 239 237 240 240 239 237 237
40 49 71 101 86 54 59 100 91 342 160 199 311 21 346 33 41 8 47 44 14 176 168 260 298 305 281 274 260 252 251 233 239 253 252 248 244 242 243 245 236 233 235
50 48 81 103 110 203 149 181 198 229 225 233 236 199 247 104 326 309 353 11 295 346 175 207 275 285 286 298 316 313 311 298 274 268 264 257 250 246 246 241 234 234 235
59 46 97 152 170 226 194 233 222 218 255 275 249 217 216 195 224 247 267 253 257 328 305 255 279 293 292 294 326 303 312 302 292 293 294 280 263 257 255 245 239 239 236
32 10 33 329 290 308 297 165 249 11 268 291 301 290 259 207 139 199 249 232 204 238 272 271 279 297 292 291 265 246 266 290 288 274 284 285 271 265 259 255 249 245 240
16 21 25 19 359 352 12 32 81 41 358 292 288 298 301 320 337 331 321 274 202 208 233 241 261 258 266 259 253 239 248 286 290 280 251 283 255 255 257 244 249 248 245
23 17 16 22 354 349 13 24 45 97 19 294 281 299 314 338 349 339 327 335 320 288 232 212 231 251 252 250 234 250 244 244 249 249 235 279 270 257 263 258 247 240 239
20 15 358 350 357 3 24 29 40 48 14 322 276 248 283 308 327 340 335 341 324 306 278 253 234 250 255 250 225 224 232 256 277 263 191 256 281 273 279 270 255 234 230
20 3 350 17 36 4 18 29 48 40 10 335 319 334 312 291 316 334 352 321 316 311 313 308 288 275 275 271 243 188 249 295 295 286 229 204 256 276 288 284 281 259 243
24 19 29 30 41 22 22 33 43 54 14 335 332 331 328 322 319 326 284 273 290 291 306 319 321 316 302 295 280 208 199 215 242 269 256 195 228 206 309 295 293 308 297